Cloud_Cover
5 15 36 19 19 38 98 63 67 70 100 100 100 100 100 91 83 4 5 5 0 0 0 0 0 0 0 0 0 0 3 6
39 82 22 22 22 40 27 71 89 100 18 5 12 82 52 51 5 50 7 4 3 0 0 0 0 0 3 0 0 0 3 79
100 69 8 8 5 79 87 80 100 100 100 5 5 26 20 31 8 3 9 5 4 2 0 0 0 19 100 81 35 53 100 87
100 83 38 99 5 60 57 100 100 100 11 5 36 23 3 10 0 5 17 43 49 61 5 0 0 10 4 70 82 20 88 100
100 76 100 100 100 62 98 99 100 42 75 19 3 0 0 23 95 100 45 64 63 43 14 10 64 62 21 78 19 20 27 79
41 43 93 94 99 99 88 100 51 66 3 2 6 10 0 14 26 69 100 100 98 100 100 61 30 41 6 34 20 22 46 56
100 42 100 100 100 100 98 100 100 100 97 98 96 90 81 71 57 35 54 12 14 72 100 100 78 99 100 40 0 72 91 9
100 82 100 100 100 100 100 100 100 100 99 66 1 0 0 0 0 0 0 0 0 0 0 19 98 46 11 0 0 0 0 0
100 98 100 100 100 100 100 100 100 88 74 69 97 12 4 0 0 0 0 0 0 0 0 0 96 11 0 0 0 0 0 0
100 100 100 100 100 100 100 100 100 100 99 100 95 50 4 5 8 2 0 0 0 0 0 5 4 2 0 0 0 0 0 0
100 100 100 100 100 100 100 100 100 100 100 98 93 73 42 62 96 84 49 12 5 4 2 17 4 0 0 0 0 0 0 0
88 100 100 100 100 100 100 100 100 100 100 100 100 100 99 64 94 94 72 35 38 4 5 5 5 4 5 5 21 3 4 0
100 100 100 100 100 100 100 100 100 100 100 100 100 100 100 100 96 100 100 100 87 64 60 100 97 83 100 100 60 4 100 100
100 100 100 100 100 100 100 100 100 100 100 100 100 100 100 100 100 100 100 100 100 100 100 99 100 100 98 70 67 61 6 5
64 100 100 100 100 100 100 100 100 100 100 100 100 100 100 100 100 99 100 100 100 100 100 99 100 79 16 86 100 100 26 23
0 56 100 100 100 100 100 100 100 100 100 100 100 100 100 100 100 100 100 100 100 100 100 100 97 98 100 100 100 95 6 99
14 1 14 100 100 100 100 100 100 100 100 100 100 100 100 100 100 100 100 100 100 100 100 100 100 100 98 100 100 100 94 100
100 29 1 0 0 32 100 100 100 100 100 100 100 100 100 100 100 100 100 100 100 100 100 100 100 100 100 100 100 96 100 100
1 0 4 0 1 1 5 4 8 43 86 68 100 100 100 100 100 100 100 100 100 100 100 100 100 100 100 100 100 100 80 93
0 0 3 0 0 4 5 0 0 2 0 0 0 10 15 63 6 37 100 100 100 100 100 100 100 100 100 88 74 100 5 2